• în România
  • Lista ţărilor
  • Pe 7 zile
  • Temperatura apei
  • Hartă satelitară
  • Meteo pe hartă
  • Widget-uri
  • user-avatar
    Intrare

    Meteo pe oră la Szombathely

    Astăzi, 16 August, Joi

    Timp Temperatura Precipitaţii Vânt Presiune Umiditate
    00:00 +19°C° 0 mm 2 m/s 745 mmHg 70%
    01:00 +19°C° 0 mm 2 m/s 745 mmHg 70%
    02:00 +18°C° 0 mm 2 m/s 745 mmHg 72%
    03:00 +18°C° 0 mm 2 m/s 745 mmHg 74%
    04:00 +18°C° 0 mm 2 m/s 745 mmHg 76%
    05:00 +19°C° 0 mm 2 m/s 745 mmHg 72%
    06:00 +20°C° 0 mm 3 m/s 745 mmHg 69%
    07:00 +21°C° 0 mm 3 m/s 745 mmHg 65%
    08:00 +24°C° 0 mm 3 m/s 745 mmHg 58%
    09:00 +26°C° 0 mm 3 m/s 745 mmHg 51%
    10:00 +27°C° 0 mm 3 m/s 745 mmHg 44%
    11:00 +28°C° 0 mm 3 m/s 745 mmHg 41%
    12:00 +29°C° 0 mm 3 m/s 744 mmHg 38%
    13:00 +30°C° 0 mm 3 m/s 744 mmHg 35%
    14:00 +30°C° 0 mm 3 m/s 744 mmHg 35%
    15:00 +30°C° 0 mm 2 m/s 743 mmHg 34%
    16:00 +30°C° 0 mm 2 m/s 743 mmHg 34%
    17:00 +28°C° 0 mm 2 m/s 743 mmHg 39%
    18:00 +26°C° 0 mm 2 m/s 743 mmHg 44%
    19:00 +24°C° 0 mm 1 m/s 742 mmHg 50%
    20:00 +23°C° 0 mm 1 m/s 743 mmHg 52%
    21:00 +22°C° 0 mm 1 m/s 743 mmHg 55%
    22:00 +22°C° 0 mm 1 m/s 743 mmHg 58%
    23:00 +21°C° 0 mm 1 m/s 743 mmHg 59%

    Mâine, 17 August, Vineri

    Timp Temperatura Precipitaţii Vânt Presiune Umiditate
    00:00 +21°C° 0 mm 1 m/s 743 mmHg 61%
    01:00 +20°C° 0 mm 1 m/s 743 mmHg 63%
    02:00 +20°C° 0 mm 1 m/s 743 mmHg 65%
    03:00 +19°C° 0 mm 1 m/s 743 mmHg 66%
    04:00 +19°C° 0 mm 1 m/s 743 mmHg 68%
    05:00 +20°C° 0 mm 1 m/s 743 mmHg 65%
    06:00 +19°C° 0 mm 0 m/s 743 mmHg 62%
    07:00 +21°C° 0 mm 0 m/s 743 mmHg 59%
    08:00 +25°C° 0 mm 1 m/s 743 mmHg 53%
    09:00 +27°C° 0 mm 1 m/s 743 mmHg 48%
    10:00 +29°C° 0 mm 1 m/s 743 mmHg 42%
    11:00 +30°C° 0 mm 2 m/s 743 mmHg 40%
    12:00 +31°C° 0 mm 2 m/s 742 mmHg 37%
    13:00 +32°C° 0 mm 2 m/s 742 mmHg 34%
    14:00 +32°C° 0 mm 2 m/s 742 mmHg 34%
    15:00 +32°C° 0 mm 2 m/s 741 mmHg 34%
    16:00 +32°C° 0 mm 2 m/s 741 mmHg 35%
    17:00 +30°C° 0 mm 1 m/s 741 mmHg 40%
    18:00 +28°C° 0 mm 1 m/s 741 mmHg 45%
    19:00 +26°C° 0 mm 1 m/s 741 mmHg 51%
    20:00 +25°C° 0 mm 1 m/s 742 mmHg 53%
    21:00 +25°C° 0 mm 1 m/s 742 mmHg 55%
    22:00 +24°C° 0 mm 1 m/s 742 mmHg 57%
    23:00 +23°C° 0 mm 1 m/s 742 mmHg 58%

    Poimâine, 18 August, Sâmbătă

    Timp Temperatura Precipitaţii Vânt Presiune Umiditate
    00:00 +23°C° 0 mm 1 m/s 742 mmHg 60%
    01:00 +22°C° 0 mm 1 m/s 742 mmHg 61%
    02:00 +22°C° 0 mm 1 m/s 743 mmHg 63%
    03:00 +22°C° 0 mm 1 m/s 743 mmHg 64%
    04:00 +21°C° 0 mm 1 m/s 743 mmHg 65%
    05:00 +22°C° 0 mm 1 m/s 743 mmHg 63%
    06:00 +23°C° 0 mm 2 m/s 744 mmHg 60%
    07:00 +24°C° 0 mm 2 m/s 744 mmHg 58%
    08:00 +26°C° 0 mm 2 m/s 744 mmHg 52%
    09:00 +28°C° 0 mm 3 m/s 744 mmHg 47%
    10:00 +30°C° 0 mm 3 m/s 744 mmHg 41%
    11:00 +31°C° 0,3 mm 2 m/s 744 mmHg 39%
    12:00 +32°C° 0,3 mm 2 m/s 744 mmHg 36%
    13:00 +34°C° 0,3 mm 2 m/s 744 mmHg 34%
    14:00 +34°C° 0,2 mm 2 m/s 744 mmHg 35%
    15:00 +32°C° 0,2 mm 1 m/s 744 mmHg 36%
    16:00 +32°C° 0,2 mm 1 m/s 743 mmHg 37%
    17:00 +30°C° 0,1 mm 1 m/s 744 mmHg 41%
    18:00 +29°C° 0,1 mm 1 m/s 744 mmHg 45%
    19:00 +27°C° 0,1 mm 1 m/s 744 mmHg 49%
    20:00 +26°C° 0,2 mm 2 m/s 744 mmHg 52%
    21:00 +25°C° 0,2 mm 2 m/s 745 mmHg 55%
    22:00 +25°C° 0,2 mm 2 m/s 745 mmHg 58%
    23:00 +24°C° 0,2 mm 2 m/s 745 mmHg 60%

    19 August, Duminică

    Timp Temperatura Precipitaţii Vânt Presiune Umiditate
    00:00 +24°C° 0,2 mm 2 m/s 745 mmHg 62%
    01:00 +23°C° 0,2 mm 2 m/s 745 mmHg 64%
    02:00 +23°C° 0,1 mm 2 m/s 745 mmHg 66%
    03:00 +23°C° 0,1 mm 2 m/s 745 mmHg 67%
    04:00 +23°C° 0,1 mm 2 m/s 746 mmHg 68%
    05:00 +22°C° 0,1 mm 3 m/s 746 mmHg 68%
    06:00 +24°C° 0,1 mm 3 m/s 746 mmHg 67%
    07:00 +24°C° 0,1 mm 3 m/s 746 mmHg 66%
    08:00 +26°C° 0,1 mm 4 m/s 746 mmHg 59%
    09:00 +28°C° 0,1 mm 4 m/s 747 mmHg 53%
    10:00 +30°C° 0,1 mm 4 m/s 747 mmHg 47%
    11:00 +32°C° 0,2 mm 4 m/s 746 mmHg 43%
    12:00 +33°C° 0,2 mm 4 m/s 746 mmHg 40%
    13:00 +34°C° 0,2 mm 3 m/s 746 mmHg 37%
    14:00 +34°C° 0,1 mm 3 m/s 745 mmHg 36%
    15:00 +34°C° 0,1 mm 3 m/s 745 mmHg 36%
    16:00 +34°C° 0,1 mm 3 m/s 745 mmHg 35%
    17:00 +31°C° 0 mm 3 m/s 745 mmHg 41%
    18:00 +29°C° 0 mm 3 m/s 745 mmHg 46%
    19:00 +27°C° 0 mm 2 m/s 745 mmHg 52%
    20:00 +26°C° 0 mm 2 m/s 745 mmHg 55%
    21:00 +25°C° 0 mm 2 m/s 746 mmHg 59%
    22:00 +24°C° 0 mm 2 m/s 746 mmHg 63%
    23:00 +23°C° 0 mm 2 m/s 746 mmHg 66%

    20 August, Luni

    Timp Temperatura Precipitaţii Vânt Presiune Umiditate
    00:00 +23°C° 0 mm 2 m/s 746 mmHg 69%
    01:00 +21°C° 0 mm 2 m/s 746 mmHg 72%
    02:00 +21°C° 0 mm 2 m/s 746 mmHg 74%
    03:00 +21°C° 0 mm 2 m/s 746 mmHg 75%
    04:00 +20°C° 0 mm 2 m/s 746 mmHg 77%
    05:00 +21°C° 0 mm 2 m/s 746 mmHg 73%
    06:00 +23°C° 0 mm 2 m/s 746 mmHg 69%
    07:00 +24°C° 0 mm 2 m/s 746 mmHg 66%
    08:00 +26°C° 0 mm 2 m/s 746 mmHg 59%
    09:00 +28°C° 0 mm 2 m/s 746 mmHg 52%
    10:00 +30°C° 0 mm 2 m/s 746 mmHg 46%
    11:00 +31°C° 0,1 mm 2 m/s 746 mmHg 43%
    12:00 +32°C° 0,1 mm 2 m/s 746 mmHg 39%
    13:00 +34°C° 0,1 mm 2 m/s 745 mmHg 36%
    14:00 +34°C° 0,1 mm 2 m/s 745 mmHg 35%
    15:00 +34°C° 0,1 mm 2 m/s 745 mmHg 35%
    16:00 +34°C° 0,1 mm 2 m/s 744 mmHg 34%
    17:00 +31°C° 0 mm 2 m/s 744 mmHg 39%
    18:00 +29°C° 0 mm 2 m/s 744 mmHg 44%
    19:00 +27°C° 0 mm 2 m/s 744 mmHg 49%
    20:00 +26°C° 0 mm 2 m/s 745 mmHg 51%
    21:00 +25°C° 0 mm 2 m/s 745 mmHg 54%
    22:00 +24°C° 0 mm 1 m/s 745 mmHg 57%
    23:00 +24°C° 0 mm 1 m/s 745 mmHg 59%

    21 August, Marţi

    Timp Temperatura Precipitaţii Vânt Presiune Umiditate
    00:00 +23°C° 0 mm 1 m/s 745 mmHg 61%
    01:00 +23°C° 0 mm 1 m/s 745 mmHg 63%
    02:00 +23°C° 0 mm 1 m/s 745 mmHg 65%
    03:00 +22°C° 0 mm 1 m/s 745 mmHg 67%
    04:00 +22°C° 0 mm 1 m/s 745 mmHg 69%
    05:00 +23°C° 0 mm 1 m/s 745 mmHg 67%
    06:00 +24°C° 0 mm 1 m/s 745 mmHg 64%
    07:00 +25°C° 0 mm 2 m/s 746 mmHg 62%
    08:00 +27°C° 0 mm 2 m/s 746 mmHg 56%
    09:00 +29°C° 0 mm 2 m/s 746 mmHg 50%
    10:00 +31°C° 0 mm 2 m/s 746 mmHg 45%
    11:00 +32°C° 0,2 mm 2 m/s 745 mmHg 42%
    12:00 +34°C° 0,2 mm 2 m/s 745 mmHg 40%
    13:00 +33°C° 0,2 mm 1 m/s 744 mmHg 38%
    14:00 +33°C° 0,3 mm 1 m/s 744 mmHg 37%
    15:00 +33°C° 0,3 mm 1 m/s 744 mmHg 37%
    16:00 +34°C° 0,3 mm 1 m/s 743 mmHg 36%
    17:00 +32°C° 0,2 mm 1 m/s 743 mmHg 40%
    18:00 +30°C° 0,2 mm 1 m/s 743 mmHg 45%
    19:00 +28°C° 0,2 mm 1 m/s 743 mmHg 49%
    20:00 +27°C° 0,2 mm 1 m/s 743 mmHg 52%
    21:00 +26°C° 0,2 mm 1 m/s 743 mmHg 54%
    22:00 +25°C° 0,2 mm 1 m/s 743 mmHg 57%
    23:00 +25°C° 0,1 mm 1 m/s 743 mmHg 58%
    Arată mai mult